Flag for Germany Weather past 2 weeks in Tuttlingen, Baden-Württemberg, Germany

Now
30 °F

Passing clouds.


Feels Like: 30 °F
Forecast: 9 / 29 °F
Wind: 2 mph from South

Location: Konstanz

Current Time: Dec 27, 2014 at 6:10:57 AM

Latest Report: Dec 27, 2014 at 4:00 AM


Visibility: 12 mi

Pressure: 30.08 "Hg

Humidity: 92%

Dew point: 28 °F

Location of TuttlingenLocation

Historic Weather in Tuttlingen — Graph

°F

Tuttlingen temperature yesterday

Maximum temperature yesterday: 37 °F (at 11:00 AM)
Minimum temperature yesterday: 31 °F (at 11:00 PM)
Average temperature yesterday: 35 °F

Past Weeks' High & Low Weather Summary

 TemperatureHumidityPressure
High54 °F (Dec 19, 2:00 PM)100% (Dec 16, 3:00 AM)30.59 "Hg (Dec 16, 3:00 AM)
Low29 °F (Dec 27, 2:00 AM)49% (Dec 13, 2:00 PM)29.85 "Hg (Dec 12, 10:00 PM)
Average43 °F80%30.20 "Hg
* Reported Dec 12 4:00 AM — Dec 27 4:00 AM, Tuttlingen, Weather by CustomWeather, © 2014

Note: Actual official high and low records may vary slightly from our data, if they occured in-between our weather recording intervals... More about our weather records

Advertising

Tuttlingen weather history for previous 24 hours

 ConditionsComfort  
Time TempWeatherWind HumidityBarometerVisibility
4:00 AM
Dec 27
30 °FPassing clouds.2 mph92%30.08 "Hg12 mi
3:00 AM29 °FClear.1 mph96%30.15 "Hg6 mi
2:00 AM29 °FFog.1 mph97%30.19 "Hg4 mi
1:00 AM30 °FClear.1 mph95%30.24 "Hg7 mi
12:00 AM30 °FClear.1 mph95%30.28 "Hg7 mi
11:00 PM
Dec 26
31 °FClear.1 mph93%30.31 "Hg6 mi
10:00 PM33 °FOvercast.1 mph96%30.35 "Hg8 mi
9:00 PM32 °FOvercast.1 mph98%30.37 "Hg4 mi
8:00 PM33 °FOvercast.1 mph96%30.39 "Hg9 mi
7:00 PM33 °FOvercast.1 mph96%30.40 "Hg10 mi
6:00 PM33 °FLow clouds.2 mph95%30.41 "Hg15 mi
5:00 PM34 °FLow clouds.2 mph97%30.42 "Hg6 mi
4:00 PM34 °FLow clouds.2 mph97%30.43 "Hg9 mi
3:00 PM33 °FSnow showers. Overcast.1 mph96%30.43 "Hg1 mi
2:00 PM35 °FSnow flurries. Overcast.2 mph84%30.43 "Hg7 mi
1:00 PM35 °FSnow flurries. Low clouds.2 mph88%30.44 "Hg7 mi
12:00 PM35 °FSnow flurries. Low clouds.3 mph87%30.46 "Hg9 mi
11:00 AM37 °FOvercast.6 mph84%30.45 "Hg9 mi
10:00 AM36 °FOvercast.6 mph84%30.44 "Hg6 mi
9:00 AM35 °FOvercast.3 mph85%30.44 "Hg12 mi
8:00 AM35 °FOvercast.5 mph86%30.44 "Hg12 mi
7:00 AM36 °FLow clouds.3 mph88%30.44 "Hg16 mi
6:00 AM36 °FOvercast.5 mph87%30.44 "Hg12 mi
Weather by CustomWeather, © 2014

See weather overviewHow to use our weather pages